Temperature
23 21 21 20 20 20 20 20 19 19 19 19 18 18 18 18 18 18 18 17 17 17 17 17 17 17 17 17 17 17 17 17 17 17 18 17 17 17 17 17 17 17 17
23 21 20 20 20 20 20 20 20 19 19 19 18 18 18 17 18 18 18 18 17 17 17 17 17 17 17 17 17 17 17 17 17 17 18 18 18 17 18 17 17 17 17
23 22 21 20 20 20 20 20 19 19 19 19 18 18 18 18 18 18 18 18 17 17 17 17 17 17 17 17 17 17 17 17 17 17 18 18 19 19 18 17 17 17 17
23 22 21 21 21 20 20 20 20 19 19 19 18 18 18 18 18 18 18 17 17 17 17 17 17 17 17 17 17 17 17 17 17 17 17 17 18 18 18 18 18 17 17
24 22 22 21 21 20 20 20 20 19 19 19 18 18 18 18 18 17 17 17 17 17 17 17 17 17 17 17 17 17 17 17 17 17 17 17 17 17 18 18 18 17 17
23 22 21 21 20 20 20 20 19 19 19 19 18 18 18 18 18 17 17 17 17 17 17 17 17 17 17 17 17 17 17 17 17 17 17 17 17 18 18 18 18 17 17
23 22 21 21 20 20 20 20 19 19 19 19 18 18 18 18 18 17 17 17 17 17 17 17 17 17 17 17 17 17 17 17 17 17 17 17 17 17 18 18 18 17 17
24 23 22 21 20 20 20 20 19 19 19 19 18 18 18 17 17 17 17 17 17 17 17 17 17 17 17 17 17 17 17 17 17 17 17 17 17 17 17 17 17 17 17
24 23 22 21 21 20 20 20 19 19 19 18 18 18 18 17 17 17 17 17 17 17 17 17 17 17 17 17 17 17 17 17 16 16 16 16 17 16 16 16 17 17 16
24 23 22 21 21 20 20 19 19 19 19 18 18 18 18 17 17 17 17 17 17 17 17 17 17 17 17 17 17 16 17 16 16 16 16 16 16 16 16 16 16 16 16
24 23 22 21 21 20 20 19 19 19 19 18 18 18 17 17 17 17 17 17 17 17 17 17 17 16 16 16 16 16 16 16 16 16 16 16 16 16 16 16 16 16 15
24 22 22 21 20 20 20 19 19 19 18 18 18 18 17 17 17 17 17 17 17 17 17 16 16 16 16 16 16 16 16 16 16 16 16 16 16 16 16 15 15 15 15
23 22 21 21 20 20 19 19 19 19 18 18 18 18 17 17 17 17 17 17 16 16 16 16 16 16 16 16 16 16 16 16 16 16 15 15 15 15 15 15 15 15 14
22 22 21 20 20 20 19 19 19 19 18 18 17 17 17 17 17 17 17 16 16 16 16 16 16 16 16 15 15 15 15 15 15 15 15 15 15 15 15 14 14 14 14
22 21 21 20 20 19 19 19 19 18 18 18 17 17 17 17 17 17 16 16 16 16 16 16 16 15 15 15 15 15 15 15 15 15 15 14 14 14 14 14 14 14 14
22 21 21 20 19 19 19 18 18 18 18 17 17 17 17 16 16 16 16 16 16 16 15 15 15 15 15 15 15 15 15 15 14 14 14 14 14 14 14 14 14 13 13
22 21 21 20 19 19 19 18 18 18 17 17 17 16 16 16 16 16 16 16 15 15 15 15 15 15 15 15 15 15 14 14 14 14 14 13 13 13 13 13 13 13 12
22 21 21 20 19 19 18 18 18 17 17 17 16 16 16 16 16 16 15 15 15 15 15 15 15 15 15 14 14 14 14 14 13 13 13 13 13 13 12 12 12 12 12
22 21 20 20 19 19 18 18 17 17 17 17 16 16 16 16 15 15 15 15 15 15 15 15 14 14 14 14 13 13 13 13 13 12 12 12 12 12 12 12 11 11 11
20 20 19 19 19 18 18 17 17 17 17 16 16 16 15 15 15 15 15 15 15 14 14 14 14 14 14 13 13 13 13 12 12 12 12 11 11 11 11 11 11 10 10
19 19 19 18 18 18 17 17 17 17 16 16 16 16 15 15 15 15 15 14 14 14 14 14 13 13 13 13 12 12 12 12 12 11 11 11 11 11 10 10 10 10 9
19 19 18 18 18 18 17 17 17 17 16 16 16 15 15 15 15 14 14 14 14 13 13 13 13 12 12 12 12 12 12 11 11 11 10 10 10 10 10 10 9 9 9
18 17 18 17 17 17 17 16 16 16 16 16 15 15 15 14 14 14 14 13 13 13 12 12 12 12 12 11 11 11 11 11 10 10 10 9 9 9 9 9 8 8 8
17 17 17 17 16 16 16 16 16 16 15 15 15 14 14 14 13 13 13 13 12 12 12 12 12 11 11 11 10 10 10 10 10 9 9 8 8 8 8 8 7 7 7
16 16 16 16 16 16 15 16 16 15 15 14 14 14 13 13 13 12 12 12 12 12 12 12 11 11 11 11 10 10 10 9 9 9 8 8 7 7 7 7 7 7 7
15 15 16 16 15 15 15 15 15 15 14 14 13 13 13 12 12 12 12 11 11 11 11 11 11 11 10 10 10 9 9 9 8 8 8 8 7 7 7 7 7 6 6
Wind_Speed
10 11 11 11 11 11 12 13 14 13 11 9 9 8 8 7 7 7 7 8 9 8 8 6 6 6 5 5 6 5 5 5 4 3 3 4 5 5 5 5 4 5 6
10 11 11 11 12 12 12 13 14 14 13 10 9 7 7 7 7 6 7 9 9 9 9 8 7 7 6 7 7 6 5 5 5 4 4 4 5 5 5 5 5 5 5
11 12 12 11 11 12 13 12 14 14 13 12 9 7 6 5 6 7 7 8 9 10 9 9 8 7 7 7 8 8 8 6 5 5 4 4 3 2 4 5 5 4 4
10 11 11 11 11 11 11 12 12 12 12 12 11 11 9 9 8 7 7 7 9 10 10 10 9 8 7 6 8 8 7 7 6 5 6 5 4 3 2 4 4 4 4
10 10 10 10 10 9 9 10 11 11 11 11 12 11 10 8 7 6 7 7 8 9 10 10 8 8 7 7 8 7 8 7 8 6 6 6 5 6 5 3 2 2 3
10 10 9 9 9 8 9 9 10 11 11 11 11 11 11 9 8 8 7 7 7 8 9 9 8 8 7 7 8 8 9 8 8 7 6 6 5 6 5 5 4 3 2
10 10 10 10 9 9 9 9 10 10 11 11 11 11 11 10 9 8 7 7 6 7 8 8 7 7 7 7 7 7 8 8 8 8 7 6 6 6 5 5 5 3 2
10 10 10 10 9 9 9 9 9 10 10 10 10 9 8 7 6 7 6 6 6 6 6 7 7 7 7 7 6 7 7 7 7 8 8 6 6 6 6 5 5 4 3
10 10 10 9 9 9 9 9 9 9 9 9 8 7 7 7 6 6 6 5 5 5 5 6 7 7 7 7 6 6 7 6 7 7 7 7 6 6 6 5 5 5 5
10 10 9 9 9 8 8 7 7 8 8 8 7 6 6 6 5 5 5 4 4 4 5 5 6 6 6 7 6 6 6 6 6 5 5 5 5 5 5 5 5 4 4
11 10 9 8 8 8 7 7 7 7 6 6 6 5 5 5 5 4 4 4 4 4 4 5 5 5 6 6 5 5 5 5 5 5 5 5 5 4 4 4 4 4 4
10 11 10 9 8 8 7 7 6 6 6 6 5 5 4 4 4 4 4 3 3 4 4 4 4 5 5 5 6 5 4 5 5 4 4 4 3 4 4 4 4 4 4
11 11 10 9 9 8 7 7 7 6 6 6 5 5 4 4 3 3 3 3 3 3 3 4 4 5 5 4 4 4 3 3 3 3 3 3 3 3 3 3 3 3 4
12 11 10 9 9 8 8 7 7 6 6 6 5 5 4 4 3 3 3 3 3 3 3 3 3 4 4 3 4 4 3 3 2 1 1 2 2 2 3 3 3 3 4
13 12 11 10 9 9 8 8 7 7 7 6 6 5 4 4 4 3 3 3 2 2 2 2 2 2 2 2 3 4 4 3 3 2 2 2 3 4 2 1 3 4 4
14 13 12 11 11 10 9 8 8 7 7 7 6 5 5 5 4 4 4 4 3 2 3 2 2 2 1 4 3 2 3 3 3 3 4 4 5 7 9 9 8 5 4
14 14 13 12 11 10 9 9 8 8 7 7 6 6 6 5 5 5 5 4 3 3 3 3 3 3 4 6 5 4 4 4 4 4 4 4 5 6 7 9 11 11 11
13 13 12 12 11 11 10 9 9 8 8 7 6 6 6 6 5 5 5 4 4 4 4 4 4 4 6 7 7 7 6 6 6 5 5 6 6 5 6 9 9 9 8
12 12 12 12 12 11 11 10 10 9 8 7 6 6 6 6 6 5 5 4 4 4 4 4 5 5 6 7 7 6 7 7 7 6 6 6 7 7 8 10 10 10 9
11 12 12 12 11 11 11 11 10 9 8 7 7 6 6 6 6 5 5 4 5 5 5 5 5 6 6 6 5 4 6 7 7 7 7 9 8 7 7 9 10 10 8
12 12 12 11 10 10 10 10 9 8 7 7 7 6 6 6 6 6 5 5 5 6 6 6 6 6 6 6 5 3 5 7 7 7 6 7 9 9 8 7 8 8 8
12 13 12 10 10 10 10 9 8 7 6 6 7 7 6 6 6 6 6 6 6 7 6 6 6 6 6 6 6 6 6 6 8 7 7 8 11 11 10 9 9 6 5
11 11 11 10 9 8 8 9 7 7 7 7 7 6 6 6 6 6 6 6 5 5 5 5 6 6 6 7 9 10 9 8 8 9 12 12 12 12 11 10 6 5 6
10 10 11 10 8 7 6 7 7 7 7 8 7 6 6 7 6 4 4 4 4 5 5 5 6 6 6 6 7 7 9 11 11 11 13 12 10 9 9 8 5 5 6
8 9 9 9 8 7 6 6 6 7 7 7 7 7 7 7 6 5 4 3 3 2 3 4 5 6 6 6 6 6 7 8 9 10 9 8 7 7 7 6 6 6 6
8 8 9 9 8 7 7 6 6 7 7 7 7 6 6 6 6 7 7 11 8 10 9 7 5 6 9 11 11 10 9 10 9 8 8 8 7 6 6 6 6 5 5
Wind_Direction
182 181 182 184 185 188 190 191 192 191 190 191 193 200 205 209 213 215 212 216 218 213 220 227 200 215 215 220 215 215 212 222 219 231 223 218 221 215 211 222 224 211 212
176 178 181 184 189 191 194 193 194 193 195 197 199 205 208 211 212 214 211 218 220 220 218 224 223 216 217 221 224 224 236 228 217 237 244 228 208 213 213 207 213 220 210
181 179 182 186 190 194 196 195 196 195 197 197 198 200 200 209 210 211 212 218 220 223 229 224 229 228 228 221 222 223 229 236 228 236 251 262 249 206 192 210 214 216 216
183 178 180 184 191 193 194 195 194 195 197 196 201 202 205 210 213 212 210 215 222 227 228 227 227 229 234 229 229 224 228 235 238 226 241 263 296 275 224 205 197 204 218
181 178 180 183 186 187 187 189 191 193 194 198 203 209 215 218 219 215 213 218 222 228 229 226 224 224 232 234 238 232 231 231 239 239 232 234 237 249 261 249 214 202 207
174 171 173 173 176 177 180 178 184 191 194 197 203 210 216 219 221 219 218 219 220 222 222 224 223 223 227 229 232 233 231 234 240 248 244 236 239 244 246 250 239 217 192
168 166 168 169 172 175 177 180 184 189 191 195 201 209 215 218 221 224 223 226 226 224 220 222 221 223 224 228 229 227 235 232 233 238 246 249 250 252 252 251 251 242 215
166 165 165 166 171 174 176 182 184 187 189 193 198 204 213 219 224 227 226 226 231 233 224 223 222 224 225 229 227 232 231 232 233 239 245 250 252 253 251 249 249 247 232
165 164 165 165 168 170 174 179 179 182 185 190 196 198 208 219 223 225 225 230 228 230 222 223 225 227 228 231 231 233 234 234 235 239 236 240 246 247 252 255 250 250 247
163 160 161 161 162 163 165 169 172 174 179 187 195 194 200 209 213 218 220 227 231 227 221 219 225 226 225 226 228 227 227 231 237 244 248 245 251 246 246 249 253 252 243
163 161 159 158 155 154 156 162 161 161 168 178 184 189 194 195 198 205 212 212 217 215 217 219 222 223 223 222 223 227 229 228 233 238 237 239 250 248 246 239 236 228 216
161 160 158 157 157 156 158 159 158 157 163 167 168 168 172 180 186 193 198 198 201 209 210 210 217 225 224 219 218 223 225 225 227 229 228 235 233 233 245 237 227 217 198
164 162 161 160 159 156 155 155 156 152 153 154 155 155 160 165 175 180 180 182 191 204 207 205 213 223 225 217 213 214 211 213 213 214 217 228 223 228 228 224 220 214 193
169 167 162 161 159 156 154 153 149 148 148 148 150 152 158 160 165 168 169 176 187 199 205 206 209 216 214 210 200 189 184 179 175 180 203 225 213 217 214 209 200 182 169
173 171 166 162 161 158 158 154 150 151 152 155 156 153 152 151 152 153 157 160 173 183 179 176 178 192 196 190 177 174 169 155 141 123 107 90 87 71 69 138 160 164 166
176 172 168 165 165 163 161 157 154 153 155 157 155 154 155 153 152 150 146 145 146 142 136 134 137 143 140 98 112 154 149 143 133 121 103 98 93 91 84 78 76 87 144
175 171 167 166 164 164 161 160 157 155 156 156 156 158 157 151 146 146 143 141 137 127 121 114 110 103 89 91 100 106 125 122 121 118 112 102 98 104 105 95 87 76 73
172 168 164 160 159 157 156 153 153 154 154 154 156 158 156 150 149 149 143 139 137 127 116 106 101 101 94 92 99 105 109 106 106 108 113 113 107 104 112 108 97 85 75
165 160 159 156 154 155 154 153 156 156 155 156 158 160 157 150 150 148 143 139 133 121 113 106 105 103 97 89 97 105 109 103 95 91 93 104 107 100 110 115 111 105 95
152 149 149 148 149 152 156 158 160 159 160 159 159 158 155 153 150 145 140 133 128 121 112 99 96 100 102 92 94 116 120 113 106 94 89 83 89 94 105 122 122 118 115
141 142 142 142 145 150 155 156 156 157 156 157 154 152 152 148 144 140 137 135 130 121 116 109 102 99 102 102 85 72 125 126 120 113 105 94 89 87 79 94 111 118 124
139 141 139 137 140 148 153 151 153 152 152 152 149 147 147 144 140 138 136 134 134 133 129 122 115 107 103 96 90 74 79 102 117 114 111 105 99 89 81 90 97 112 130
138 139 137 135 137 146 153 151 146 147 149 147 144 142 139 133 136 143 143 145 147 146 142 140 134 123 113 98 88 87 84 85 102 104 102 110 112 108 97 95 103 129 120
138 139 138 136 136 142 143 139 140 147 150 148 144 144 140 135 131 131 141 149 153 156 152 151 144 137 133 130 127 119 113 110 110 113 115 113 107 104 106 119 117 103 97
135 138 136 135 137 137 134 134 141 149 150 147 147 149 143 134 123 108 82 100 81 113 156 155 149 151 150 129 116 135 136 135 130 132 132 131 129 124 122 117 111 113 117
133 133 133 134 134 136 133 134 143 150 150 151 154 151 144 137 133 126 102 57 63 63 63 68 100 103 107 117 113 107 108 117 139 143 137 136 134 132 130 129 128 127 124
Height
1528 1530 1532 1534 1536 1538 1540 1542 1544 1547 1550 1552 1554 1556 1559 1561 1563 1565 1567 1569 1571 1573 1575 1577 1578 1579 1580 1581 1583 1583 1584 1585 1586 1587 1587 1587 1587 1587 1587 1588 1589 1589 1590
1526 1528 1530 1532 1534 1535 1538 1540 1542 1544 1547 1550 1552 1554 1557 1559 1561 1563 1565 1567 1569 1571 1573 1574 1576 1578 1578 1579 1580 1581 1583 1584 1585 1586 1586 1586 1587 1585 1586 1586 1586 1587 1588
1523 1525 1528 1530 1531 1533 1535 1537 1539 1542 1545 1547 1550 1552 1554 1556 1558 1560 1562 1564 1566 1568 1570 1572 1573 1575 1576 1577 1578 1579 1580 1582 1583 1583 1584 1584 1584 1584 1584 1584 1585 1585 1586
1521 1523 1525 1528 1529 1531 1533 1535 1537 1539 1542 1544 1547 1549 1551 1553 1555 1557 1560 1561 1564 1565 1567 1568 1570 1571 1573 1574 1575 1577 1578 1579 1580 1581 1581 1582 1582 1582 1582 1582 1582 1583 1583
1519 1521 1523 1526 1528 1530 1532 1533 1535 1537 1539 1542 1544 1546 1549 1551 1553 1555 1556 1558 1560 1562 1563 1565 1566 1568 1569 1571 1572 1573 1575 1576 1577 1578 1579 1579 1580 1580 1581 1580 1581 1581 1581
1517 1520 1522 1524 1527 1529 1530 1531 1533 1535 1537 1539 1541 1543 1546 1548 1550 1552 1554 1555 1557 1558 1560 1561 1563 1564 1566 1567 1568 1570 1571 1572 1573 1574 1576 1576 1577 1577 1578 1578 1578 1578 1579
1516 1518 1521 1523 1525 1527 1528 1530 1531 1533 1535 1537 1539 1541 1543 1545 1547 1549 1551 1552 1554 1555 1556 1558 1559 1560 1562 1563 1564 1566 1567 1568 1569 1570 1571 1573 1573 1574 1575 1575 1575 1576 1576
1514 1517 1520 1522 1524 1526 1527 1528 1530 1531 1533 1535 1537 1539 1541 1543 1545 1546 1548 1549 1551 1552 1553 1554 1555 1557 1558 1560 1561 1562 1563 1565 1565 1567 1568 1569 1570 1571 1571 1572 1573 1573 1574
1513 1516 1519 1521 1523 1525 1526 1528 1529 1530 1532 1533 1535 1537 1539 1540 1542 1544 1545 1546 1547 1549 1550 1551 1552 1553 1554 1555 1557 1558 1559 1561 1562 1563 1564 1565 1566 1566 1567 1568 1569 1570 1570
1513 1516 1518 1520 1523 1524 1526 1527 1528 1529 1530 1532 1533 1535 1536 1538 1539 1541 1542 1543 1544 1545 1546 1548 1549 1550 1551 1552 1553 1554 1556 1557 1558 1559 1560 1561 1562 1563 1564 1564 1565 1566 1567
1512 1515 1517 1520 1522 1523 1525 1526 1527 1528 1529 1530 1532 1533 1534 1536 1537 1538 1540 1541 1542 1543 1544 1545 1546 1547 1548 1549 1550 1551 1553 1554 1555 1555 1556 1557 1558 1559 1559 1560 1561 1562 1563
1511 1514 1516 1519 1521 1523 1524 1525 1527 1527 1528 1529 1530 1532 1533 1534 1535 1537 1538 1539 1540 1540 1541 1542 1543 1544 1545 1546 1547 1548 1549 1550 1551 1552 1553 1553 1554 1554 1555 1556 1556 1557 1559
1510 1513 1515 1517 1520 1522 1523 1525 1526 1527 1527 1528 1530 1531 1532 1533 1534 1535 1536 1537 1537 1538 1539 1540 1540 1541 1542 1543 1544 1545 1546 1547 1548 1548 1549 1550 1550 1550 1551 1552 1553 1554 1555
1508 1511 1514 1516 1518 1520 1522 1524 1525 1526 1527 1528 1529 1530 1531 1532 1533 1533 1534 1535 1536 1536 1537 1537 1538 1539 1540 1540 1541 1542 1543 1543 1544 1545 1546 1546 1547 1547 1548 1548 1549 1550 1552
1506 1509 1512 1515 1517 1519 1521 1523 1524 1525 1527 1528 1529 1530 1530 1531 1532 1532 1533 1534 1534 1535 1535 1536 1536 1537 1538 1538 1539 1539 1540 1540 1541 1542 1543 1543 1544 1544 1545 1546 1546 1548 1550
1504 1507 1510 1513 1515 1517 1520 1521 1523 1524 1526 1527 1528 1529 1530 1530 1531 1532 1532 1533 1533 1533 1534 1534 1535 1535 1536 1536 1537 1537 1538 1538 1539 1540 1540 1541 1541 1542 1543 1543 1544 1546 1547
1501 1505 1508 1510 1513 1516 1518 1520 1522 1523 1525 1526 1527 1528 1529 1530 1531 1531 1532 1532 1532 1533 1533 1533 1533 1534 1534 1534 1535 1535 1536 1536 1537 1538 1538 1539 1539 1540 1541 1542 1542 1543 1544
1499 1502 1506 1509 1512 1514 1516 1519 1521 1522 1524 1525 1527 1528 1528 1529 1530 1530 1531 1531 1532 1532 1532 1532 1533 1533 1533 1533 1534 1534 1535 1535 1536 1536 1537 1537 1538 1538 1540 1540 1541 1542 1543
1497 1500 1504 1507 1510 1512 1515 1517 1520 1521 1523 1524 1526 1527 1528 1528 1529 1530 1530 1530 1531 1531 1532 1532 1532 1532 1532 1533 1533 1534 1534 1534 1535 1536 1536 1537 1537 1538 1539 1539 1540 1541 1542
1495 1498 1502 1505 1508 1510 1513 1516 1518 1520 1521 1522 1524 1525 1526 1527 1528 1528 1529 1529 1530 1530 1531 1531 1531 1532 1532 1532 1533 1534 1534 1534 1535 1535 1536 1536 1537 1538 1538 1539 1540 1540 1542
1494 1497 1500 1503 1506 1508 1511 1514 1516 1518 1519 1520 1522 1523 1524 1525 1526 1527 1527 1528 1529 1530 1530 1530 1531 1531 1532 1532 1533 1533 1534 1535 1535 1535 1536 1537 1538 1538 1539 1540 1541 1541 1543
1493 1496 1499 1501 1504 1507 1509 1511 1513 1515 1517 1518 1519 1521 1522 1524 1524 1525 1526 1527 1528 1528 1529 1530 1530 1531 1531 1532 1532 1533 1534 1535 1535 1536 1537 1537 1539 1539 1540 1541 1542 1543 1545
1492 1495 1498 1500 1503 1505 1508 1509 1511 1513 1515 1516 1518 1519 1520 1521 1522 1524 1524 1525 1526 1528 1528 1529 1530 1530 1531 1531 1532 1533 1534 1535 1535 1536 1537 1538 1540 1541 1542 1543 1543 1545 1547
1492 1494 1497 1499 1501 1504 1506 1507 1509 1511 1513 1514 1516 1517 1518 1519 1521 1522 1523 1524 1525 1526 1527 1528 1529 1529 1530 1531 1532 1532 1533 1534 1535 1536 1538 1539 1541 1542 1543 1544 1546 1547 1548
1491 1493 1495 1497 1500 1502 1504 1505 1507 1508 1511 1512 1514 1515 1516 1518 1519 1520 1521 1523 1524 1525 1526 1527 1527 1528 1529 1530 1531 1532 1533 1534 1536 1537 1539 1541 1542 1544 1545 1546 1547 1548 1550
1491 1493 1494 1496 1498 1500 1502 1503 1505 1507 1509 1511 1512 1513 1515 1516 1517 1518 1519 1520 1522 1523 1524 1525 1526 1526 1527 1528 1530 1532 1533 1535 1536 1538 1540 1541 1543 1545 1546 1547 1548 1550 1551